[[{"header":{"parameterUnit":"m.s-1","parameterCategory":1,"la1":30.2991,"la2":30.254,"lo1":-89.0895,"lo2":-89.0444,"dy":0.0017,"dx":0.0017,"nx":28,"ny":28,"refTime":"2023-07-19T09:00:00:Z","depth":0,"parameterNumber":2,"parameterNumberName":"U-component_of_WINDS"},"data":[0,0,0,0,0,0,0,0,0,0,0,0,0,0,0,0,0,0,0,0,0,0,0,0,0,0,0,0,0,0,0,0,0,0,0,0,0,0,0,0,0,0,0,0,0,0,0,0,0,0,0,0,0,0,0,0,0,0,0.403,0.4031,0,0.4149,0.415,0.4152,0.4213,0.4213,0.4213,0.4213,0.4334,0.4337,0.434,0,0,0,0,0,0,0,0,0,0,0,0,0,0.3853,0.3856,0.403,0.4031,0.4033,0.4149,0.4151,0.4152,0.4213,0.4213,0.4213,0.4213,0.4333,0.4336,0.434,0,0,0,0,0,0,0,0,0,0,0,0,0,0.3946,0.3856,0.403,0.4077,0.4083,0.4149,0.4151,0.4153,0.4213,0.4213,0.4213,0.4213,0.4332,0.4336,0.4341,0.4368,0,0,0.4355,0.4357,0,0,0,0,0,0,0,0,0.3941,0.3953,0.4069,0.4074,0.408,0.4166,0.4132,0.4225,0.4213,0.4164,0.4213,0.4213,0.4278,0.4287,0.4309,0.4373,0.4379,0.4356,0.4358,0.436,0.4362,0,0,0,0,0,0,0,0.3934,0.3948,0.4077,0.407,0.4077,0.4092,0.4105,0.415,0.4219,0.4168,0.4173,0.4186,0.4281,0.4304,0.4312,0.438,0.4355,0.436,0.4363,0.4364,0.4472,0.4472,0,0,0,0,0,0,0.392,0.3942,0.4073,0.4081,0.401,0.4095,0.411,0.4139,0.4218,0.4231,0.4186,0.4188,0.4296,0.4307,0.4317,0.4353,0.436,0.4365,0.4368,0.4472,0.4472,0.4472,0,0,0,0,0,0,0.3916,0.3932,0.4068,0.4013,0.4031,0.4098,0.413,0.4141,0.4164,0.4232,0.4244,0.4197,0.4297,0.431,0.4355,0.4358,0.4367,0.4371,0.4472,0.4472,0.4472,0.4427,0,0,0,0,0,0,0.3911,0.393,0.3941,0.4013,0.4034,0.4105,0.413,0.4143,0.4173,0.4177,0.4246,0.4257,0.4298,0.4347,0.4359,0.4365,0.4375,0.4472,0.4472,0.4472,0.4428,0.4425,0.4423,0,0,0,0,0,0.3905,0.3924,0.3942,0.3957,0.405,0.4105,0.4117,0.4164,0.4173,0.4184,0.4228,0.4255,0.4356,0.4351,0.4365,0.4373,0.4472,0.4472,0.4472,0.4429,0.4426,0.4423,0,0,0,0,0,0,0.385,0.3934,0.3955,0.3997,0.4044,0.4115,0.4131,0.4159,0.4203,0.4205,0.4261,0.4276,0.4315,0.4348,0.4341,0.4403,0.4417,0.442,0.4379,0.4377,0.4374,0.4365,0.4379,0,0,0,0,0,0.3844,0.3882,0.3952,0.3983,0.4005,0.4064,0.409,0.4122,0.4172,0.4191,0.4238,0.4285,0.4327,0.4354,0.4396,0.4433,0.4449,0.4445,0.4442,0.444,0.4441,0.4463,0.4462,0.4472,0.4472,0.4472,0,0,0.383,0.388,0.3901,0.3974,0.4013,0.4051,0.408,0.4119,0.4147,0.4197,0.4242,0.4277,0.4333,0.4374,0.4394,0.4403,0.4442,0.444,0.4437,0.4441,0.4463,0.4462,0.4461,0.4472,0.4472,0.4472,0,0,0.3823,0.3865,0.3896,0.3935,0.3994,0.4033,0.404,0.4108,0.4133,0.4179,0.4217,0.4251,0.4323,0.4361,0.439,0.4397,0.4424,0.4409,0.4395,0.4415,0.4414,0.4414,0.4416,0.4416,0.4411,0.4411,0.4411,0,0.3798,0.3857,0.3907,0.3944,0.3975,0.4022,0.4052,0.4088,0.4158,0.4177,0.4186,0.4277,0.4318,0.4368,0.437,0.4391,0.4401,0.4402,0.4411,0.4411,0.4411,0.4414,0.4414,0.4409,0.4409,0.4409,0.4409,0,0.3823,0.3864,0.3881,0.3948,0.398,0.4013,0.4068,0.4094,0.4123,0.4161,0.4206,0.4257,0.4311,0.4325,0.4353,0.4379,0.4382,0.44,0.4415,0.4407,0.441,0.4412,0.4406,0.4406,0.4407,0.4408,0,0,0.3787,0.3881,0.3886,0.3917,0.3986,0.4018,0.4052,0.4105,0.4127,0.4173,0.4204,0.4263,0.428,0.4312,0.4345,0.4363,0.4365,0.4379,0.4381,0.4374,0.4395,0.4381,0.4381,0.4383,0.4383,0.4384,0.439,0,0.379,0.3856,0.3902,0.3949,0.3987,0.4032,0.4062,0.4107,0.4143,0.4179,0.4218,0.4259,0.4279,0.4299,0.4318,0.436,0.437,0.4361,0.4411,0.4412,0.4396,0.4383,0.4369,0.4373,0.4392,0.4392,0.4393,0,0.3803,0.3849,0.39,0.3965,0.3982,0.4008,0.406,0.4094,0.4146,0.4171,0.4206,0.424,0.4278,0.429,0.4343,0.4335,0.4359,0.4382,0.4384,0.439,0.4402,0.4389,0.4375,0.4375,0.4395,0.4395,0.4395,0,0.3771,0.3845,0.3885,0.391,0.3986,0.4004,0.4036,0.4088,0.4117,0.4161,0.418,0.4229,0.4255,0.4291,0.4337,0.4341,0.4385,0.44,0.4406,0.4405,0.4413,0.4412,0.4402,0.4428,0.4428,0.4428,0.4428,0,0.377,0.3799,0.3872,0.3896,0.393,0.3982,0.4014,0.405,0.4096,0.4128,0.4169,0.4198,0.4257,0.4293,0.4329,0.4366,0.4378,0.4399,0.4408,0.4395,0.4392,0.4411,0.4412,0.4428,0.4428,0.4428,0.4428,0,0.374,0.3789,0.3836,0.3905,0.3922,0.3944,0.4002,0.4028,0.4065,0.4105,0.4117,0.4177,0.4221,0.427,0.433,0.4355,0.439,0.4403,0.4372,0.4378,0.438,0.4379,0.4382,0.4385,0.4408,0.4408,0.4408,0,0.3736,0.376,0.383,0.3855,0.3886,0.3925,0.3955,0.4006,0.4035,0.4095,0.4113,0.416,0.4201,0.4269,0.4317,0.4363,0.4378,0.4376,0.4385,0.4371,0.4378,0.4376,0.4378,0.4373,0.4372,0.4372,0.4372,0,0.3723,0.3746,0.3788,0.3837,0.3871,0.3912,0.3955,0.3973,0.4033,0.4063,0.4109,0.414,0.4202,0.4248,0.43,0.4333,0.4362,0.4368,0.4372,0.4359,0.434,0.435,0.4365,0.4368,0.4368,0.4369,0.4369,0.4369,0.3706,0.3729,0.3782,0.3826,0.3864,0.3903,0.393,0.3971,0.4011,0.4065,0.4093,0.4138,0.4189,0.4262,0.4293,0.4329,0.4338,0.4344,0.4345,0.4346,0.4342,0.4334,0.4339,0.4339,0.4339,0.4339,0.4339,0,0.3695,0.3732,0.3772,0.3831,0.3865,0.389,0.3939,0.3965,0.4005,0.405,0.4089,0.4141,0.4186,0.4237,0.4285,0.4304,0.4318,0.4315,0.4314,0.4321,0.4331,0.4323,0.4302,0.4302,0.4302,0.4302,0.4302,0.4302,0.3694,0.3734,0.3763,0.3822,0.3858,0.3903,0.3929,0.3965,0.4001,0.4057,0.4095,0.4128,0.4175,0.4227,0.4269,0.4283,0.4298,0.4291,0.4308,0.4317,0.432,0.4323,0.4316,0.4294,0.4294,0.4295,0.4295,0.4295]},{"header":{"parameterUnit":"m.s-1","parameterCategory":1,"la1":30.2991,"la2":30.254,"lo1":-89.0895,"lo2":-89.0444,"dy":0.0017,"dx":0.0017,"nx":28,"ny":28,"refTime":"2023-07-19T09:00:00:Z","depth":0,"parameterNumber":3,"parameterNumberName":"V-component_of_WINDS"},"data":[0,0,0,0,0,0,0,0,0,0,0,0,0,0,0,0,0,0,0,0,0,0,0,0,0,0,0,0,0,0,0,0,0,0,0,0,0,0,0,0,0,0,0,0,0,0,0,0,0,0,0,0,0,0,0,0,0,0,3.271,3.2709,0,3.2623,3.2622,3.2621,3.2535,3.2534,3.2533,3.2532,3.2437,3.2436,3.2434,0,0,0,0,0,0,0,0,0,0,0,0,0,3.2797,3.2796,3.271,3.2709,3.2708,3.2623,3.2622,3.262,3.2535,3.2534,3.2533,3.2531,3.2438,3.2436,3.2434,0,0,0,0,0,0,0,0,0,0,0,0,0,3.2739,3.2795,3.271,3.2655,3.2649,3.2623,3.2622,3.262,3.2536,3.2534,3.2532,3.2531,3.2438,3.2436,3.2434,3.2453,0,0,3.2427,3.2426,0,0,0,0,0,0,0,0,3.2743,3.2736,3.2664,3.2659,3.2652,3.2588,3.2617,3.2564,3.2536,3.2579,3.2532,3.253,3.2488,3.2482,3.2469,3.2449,3.2445,3.2427,3.2425,3.2424,3.2424,0,0,0,0,0,0,0,3.2747,3.2739,3.2675,3.2663,3.2656,3.2633,3.2623,3.2607,3.2544,3.2575,3.2568,3.256,3.2485,3.2471,3.2466,3.2443,3.2427,3.2425,3.2423,3.2423,3.2432,3.2434,0,0,0,0,0,0,3.276,3.2743,3.2678,3.2672,3.2694,3.2633,3.2622,3.261,3.2544,3.2532,3.2561,3.2556,3.2476,3.2469,3.2463,3.248,3.2424,3.2422,3.2421,3.2431,3.2433,3.2434,0,0,0,0,0,0,3.2762,3.2755,3.2681,3.2706,3.2695,3.2633,3.2621,3.2609,3.2596,3.2533,3.2521,3.2559,3.2474,3.2466,3.2456,3.2475,3.2421,3.2419,3.2429,3.2431,3.2434,3.2515,0,0,0,0,0,0,3.2765,3.2756,3.2764,3.2707,3.2694,3.2678,3.2622,3.2609,3.2593,3.2586,3.2529,3.2517,3.2472,3.246,3.2454,3.2471,3.2418,3.2427,3.243,3.2433,3.251,3.252,3.2528,0,0,0,0,0,3.2768,3.2789,3.2765,3.2758,3.2703,3.268,3.2672,3.2622,3.2595,3.2602,3.2561,3.2519,3.2474,3.246,3.2452,3.2469,3.2425,3.2429,3.2433,3.2506,3.2518,3.2528,0,0,0,0,0,0,3.2849,3.2781,3.2753,3.2757,3.2725,3.2665,3.2672,3.2636,3.2609,3.2603,3.254,3.2527,3.2525,3.2496,3.2481,3.2483,3.2444,3.2446,3.2503,3.2513,3.2522,3.2528,3.2416,0,0,0,0,0,3.2867,3.2856,3.2796,3.2805,3.2791,3.2735,3.2723,3.2687,3.265,3.2636,3.2594,3.2559,3.2537,3.2523,3.2499,3.2506,3.2491,3.2514,3.2523,3.253,3.2532,3.2532,3.2541,3.2446,3.2446,3.2446,0,0,3.2904,3.2866,3.2862,3.282,3.2791,3.2779,3.2724,3.2713,3.2703,3.2633,3.2622,3.2591,3.2547,3.2546,3.2543,3.2521,3.2556,3.2535,3.2541,3.2539,3.2537,3.2546,3.2554,3.2449,3.2448,3.2448,0,0,3.2966,3.2937,3.2941,3.2913,3.2871,3.2833,3.2834,3.278,3.2757,3.2746,3.2693,3.2679,3.2642,3.2613,3.2593,3.2644,3.2604,3.2638,3.2684,3.2685,3.2692,3.2698,3.2715,3.2722,3.2641,3.2641,3.2641,0,3.3018,3.2999,3.2947,3.294,3.2922,3.2861,3.2863,3.2838,3.2789,3.2778,3.2755,3.2707,3.2674,3.2664,3.2676,3.2663,3.266,3.2644,3.2696,3.2701,3.2706,3.2722,3.2728,3.2645,3.2645,3.2644,3.2644,0,3.3063,3.3051,3.3059,3.3016,3.2999,3.2996,3.2942,3.2931,3.2897,3.2861,3.2849,3.2807,3.2773,3.2768,3.2733,3.2753,3.2741,3.2708,3.2667,3.2721,3.2734,3.2739,3.2651,3.265,3.2649,3.2647,0,0,3.3173,3.3101,3.3105,3.3084,3.3033,3.3021,3.3015,3.2984,3.2975,3.2943,3.2936,3.2906,3.2876,3.2853,3.2815,3.2816,3.2857,3.2782,3.278,3.2797,3.2874,3.2899,3.2907,3.2831,3.2832,3.2832,3.2878,0,3.3225,3.3213,3.3166,3.3167,3.3154,3.3096,3.309,3.3057,3.3024,3.3006,3.2968,3.2948,3.2909,3.2896,3.2894,3.2853,3.2872,3.2849,3.2821,3.282,3.2833,3.2914,3.294,3.2985,3.2883,3.2883,3.2884,0,3.3284,3.3258,3.3259,3.3208,3.32,3.3197,3.3164,3.3149,3.3109,3.3084,3.306,3.3018,3.3006,3.2969,3.2951,3.2937,3.2922,3.29,3.2901,3.2895,3.2855,3.2909,3.2998,3.3004,3.2892,3.2891,3.2891,0,3.3363,3.3328,3.3323,3.3307,3.3248,3.3246,3.3221,3.318,3.3164,3.3135,3.3123,3.3093,3.3075,3.3052,3.3001,3.2979,3.2988,3.2947,3.2966,3.2967,3.2969,3.297,3.3056,3.2962,3.2962,3.2962,3.2962,0,3.3426,3.3428,3.3358,3.3355,3.3355,3.3301,3.3302,3.327,3.3235,3.3223,3.317,3.316,3.3095,3.3076,3.3037,3.3027,3.302,3.2998,3.2987,3.3002,3.3005,3.2991,3.2986,3.2964,3.2964,3.2963,3.2963,0,3.3513,3.3467,3.3458,3.3402,3.3389,3.3391,3.3343,3.3336,3.33,3.3286,3.328,3.3222,3.3198,3.3145,3.3106,3.3079,3.3079,3.306,3.3093,3.3086,3.3108,3.3106,3.3187,3.3194,3.3098,3.3099,3.3099,0,3.3556,3.3556,3.3502,3.3491,3.3469,3.3452,3.3436,3.3382,3.3367,3.3322,3.3321,3.3293,3.3268,3.3231,3.3184,3.3154,3.3133,3.3164,3.3128,3.3143,3.3132,3.3133,3.3132,3.3171,3.3173,3.3174,3.3175,0,3.3636,3.3613,3.3593,3.3565,3.3547,3.3522,3.3493,3.3487,3.3426,3.3411,3.3387,3.3368,3.3329,3.3301,3.3264,3.3235,3.3194,3.3187,3.3189,3.3204,3.3222,3.3211,3.3114,3.3185,3.3184,3.3183,3.3182,3.3182,3.3701,3.3699,3.366,3.3639,3.3612,3.3587,3.3579,3.3542,3.3522,3.3487,3.3455,3.3434,3.3393,3.3339,3.3313,3.3294,3.3273,3.3277,3.3278,3.328,3.3286,3.3227,3.3287,3.3286,3.3286,3.3286,3.3285,0,3.3778,3.375,3.3732,3.3694,3.3678,3.3643,3.361,3.3597,3.358,3.3546,3.3523,3.3494,3.3467,3.3418,3.3386,3.338,3.3361,3.3373,3.3373,3.3366,3.3306,3.3307,3.339,3.339,3.339,3.339,3.339,3.339,3.3816,3.381,3.3782,3.3762,3.3733,3.3713,3.3697,3.3673,3.3646,3.3617,3.3595,3.3564,3.3524,3.3489,3.3461,3.3447,3.3437,3.3456,3.3436,3.3381,3.3371,3.3361,3.3362,3.3455,3.3455,3.3498,3.3498,3.3499]}]]